Location: Newark
(34.0131°N, 4.3314°W)
Time: 08:04:12
(UTC+00:00)

A-11 Canister half - All Passes

Search period start: 23 October 2019 00:00
Search period end: 02 November 2019 00:00
Orbit: 1514 x 1686 km, 47.2° (Epoch: 23 October)

Date Brightness Start Highest point End Pass type
(mag) Time Alt. Az. Time Alt. Az. Time Alt. Az.
23 Oct - 00:31:59 10° SW 00:42:05 75° SE 00:51:55 10° NE visible
23 Oct - 02:38:06 10° W 02:47:41 48° NNW 02:56:59 10° NE visible
23 Oct - 04:45:48 10° WNW 04:54:42 37° N 05:03:20 10° ENE visible
23 Oct - 06:51:45 10° NW 07:01:17 62° NNE 07:10:29 10° ESE daylight
23 Oct - 08:57:09 10° WNW 09:06:00 47° SW 09:14:40 10° SSE daylight
23 Oct - 22:08:57 10° SSE 22:15:16 19° SE 22:21:31 10° E night (unlit)
24 Oct - 00:09:05 10° SW 00:19:09 71° SE 00:28:58 10° ENE visible
24 Oct - 02:15:00 10° W 02:24:40 50° NNW 02:34:02 10° NE visible
24 Oct - 04:22:42 10° WNW 04:31:40 37° N 04:40:18 10° ENE visible
24 Oct - 06:28:47 10° NW 06:38:19 60° NNE 06:47:30 10° ESE daylight
24 Oct - 08:34:08 10° WNW 08:43:08 50° SW 08:51:55 10° SSE daylight
24 Oct - 21:46:38 10° SSE 21:52:25 17° ESE 21:58:08 10° E night (unlit)
24 Oct - 23:46:12 10° SW 23:56:14 67° SE 00:06:02 10° ENE visible
25 Oct - 01:51:54 10° W 02:01:39 52° NNW 02:11:07 10° NE visible
25 Oct - 03:59:38 10° WNW 04:08:36 37° N 04:17:17 10° ENE visible
25 Oct - 06:05:50 10° NW 06:15:20 57° NNE 06:24:30 10° ESE visible
25 Oct - 08:11:09 10° WNW 08:20:16 54° SW 08:29:10 10° SSE daylight
25 Oct - 10:23:16 10° WSW 10:23:36 10° WSW 10:23:57 10° WSW daylight
25 Oct - 21:24:25 10° SSE 21:29:34 15° ESE 21:34:39 10° E night (unlit)
25 Oct - 23:23:20 10° SW 23:33:18 64° SE 23:43:04 10° ENE night (unlit)
26 Oct - 01:28:48 10° W 01:38:38 54° NNW 01:48:11 10° NE visible
26 Oct - 03:36:33 10° WNW 03:45:33 37° N 03:54:15 10° ENE visible
26 Oct - 05:42:51 10° NW 05:52:21 55° NNE 06:01:30 10° ESE visible
26 Oct - 07:48:09 10° WNW 07:57:25 58° SW 08:06:23 10° SSE daylight
26 Oct - 09:58:00 10° WSW 10:00:48 12° WSW 10:03:35 10° SW daylight
26 Oct - 21:02:21 10° SSE 21:06:43 14° ESE 21:11:02 10° E night (unlit)
26 Oct - 23:00:29 10° SSW 23:10:23 60° SE 23:20:06 10° ENE night (unlit)
27 Oct - 01:05:44 10° WSW 01:15:37 56° NNW 01:25:14 10° NE visible
27 Oct - 03:13:26 10° WNW 03:22:29 37° N 03:31:14 10° ENE visible
27 Oct - 05:19:53 10° NW 05:29:22 53° NNE 05:38:29 10° E visible
27 Oct - 07:25:10 10° WNW 07:34:32 62° SW 07:43:37 10° SE daylight
27 Oct - 09:34:06 10° W 09:38:00 13° WSW 09:41:51 10° SSW daylight
27 Oct - 20:40:33 10° SE 20:43:52 12° ESE 20:47:10 10° ESE night (unlit)
27 Oct - 22:37:38 10° SSW 22:47:28 56° SE 22:57:07 10° ENE night (unlit)
28 Oct - 00:42:39 10° WSW 00:52:36 58° NNW 01:02:18 10° NE visible
28 Oct - 02:50:21 10° WNW 02:59:25 37° N 03:08:12 10° ENE visible
28 Oct - 04:56:54 10° NW 05:06:22 51° NNE 05:15:29 10° E visible
28 Oct - 07:02:11 10° WNW 07:11:39 66° SW 07:20:49 10° SE daylight
28 Oct - 09:10:29 10° W 09:15:11 15° WSW 09:19:49 10° SSW daylight
28 Oct - 20:19:26 10° SE 20:21:01 10° ESE 20:22:37 10° ESE night (unlit)
28 Oct - 22:14:49 10° SSW 22:24:33 53° SE 22:34:08 10° ENE night (unlit)
29 Oct - 00:19:35 10° WSW 00:29:36 61° NNW 00:39:22 10° NE visible
29 Oct - 02:27:14 10° WNW 02:36:21 38° N 02:45:11 10° ENE visible
29 Oct - 04:33:54 10° NW 04:43:22 49° NNE 04:52:28 10° E visible
29 Oct - 06:39:12 10° WNW 06:48:46 70° SW 06:57:59 10° SE daylight
29 Oct - 08:47:01 10° W 08:52:22 17° WSW 08:57:40 10° SSW daylight
29 Oct - 21:52:01 10° SSW 22:01:38 49° SE 22:11:09 10° ENE night (unlit)
29 Oct - 23:56:32 10° WSW 00:06:36 64° NNW 00:16:26 10° NE visible
30 Oct - 02:04:07 10° WNW 02:13:17 38° N 02:22:11 10° ENE visible
30 Oct - 04:10:55 10° NW 04:20:21 48° NNE 04:29:26 10° E visible
30 Oct - 06:16:14 10° WNW 06:25:52 75° SW 06:35:09 10° SE daylight
30 Oct - 08:23:39 10° W 08:29:33 19° WSW 08:35:23 10° SSW daylight
30 Oct - 21:29:15 10° SSW 21:38:44 46° SE 21:48:07 10° ENE visible
30 Oct - 23:33:30 10° WSW 23:43:36 66° NNW 23:53:30 10° NE night (unlit)
31 Oct - 01:41:00 10° WNW 01:50:13 39° N 01:59:10 10° ENE visible
31 Oct - 03:47:54 10° NW 03:57:20 46° NNE 04:06:25 10° E visible
31 Oct - 05:53:15 10° NW 06:02:58 79° SW 06:12:18 10° SE visible
31 Oct - 08:00:20 10° W 08:06:43 20° SW 08:13:02 10° SSW daylight
31 Oct - 21:06:30 10° SSW 21:15:50 43° SE 21:25:06 10° ENE visible
31 Oct - 23:10:27 10° WSW 23:20:36 69° NNW 23:30:35 10° NE night (unlit)
01 Nov - 01:17:53 10° WNW 01:27:09 39° N 01:36:10 10° ENE visible
01 Nov - 03:24:55 10° NW 03:34:18 45° NNE 03:43:22 10° E visible
01 Nov - 05:30:17 10° NW 05:40:03 83° SW 05:49:26 10° SE visible
01 Nov - 07:37:05 10° WNW 07:43:54 22° SW 07:50:36 10° S daylight
01 Nov - 20:43:46 10° SSW 20:52:57 40° SE 21:02:04 10° ENE visible
01 Nov - 22:47:26 10° WSW 22:57:37 73° NNW 23:07:38 10° NE night (unlit)
